Regional Weather Roundup
Issued by NWS

Home | Current Version | Previous Version | Text Only | Print | Product List | Glossary Off
Versions: 1 2 3 4 5 6 7 8 9 10 11 12 13 14 15 16 17 18 19 20 21 22 23 24 25 26 27 28 29 30 31 32 33 34 35 36 37 38 39 40 41 42 43 44 45 46 47 48 49 50

000
ASUS43 KLMK 032310
RWRKY
KENTUCKY REGIONAL WEATHER ROUNDUP
NATIONAL WEATHER SERVICE LOUISVILLE KY
700 PM EDT SUN MAY 03 2015

NOTE "FAIR" INDICATES FEW OR NO CLOUDS BELOW 12,000 FEET
WITH NO SIGNIFICANT WEATHER AND/OR OBSTRUCTIONS TO VISIBILITY.

KYZ001>023-026-027-061>063-070>075-040000-
WESTERN AND SOUTH CENTRAL KENTUCKY

CITY           SKY/WX    TMP DP  RH WIND       PRES   REMARKS
PADUCAH        SUNNY     79  45  29 SW8       30.03S
HENDERSON      SUNNY     79  48  34 SW12G17   30.02S
OWENSBORO      SUNNY     79  52  38 SW10      30.04F
HOPKINSVILLE   MOSUNNY   77  54  43 SW10      30.06S
BOWLING GREEN  SUNNY     78  49  35 S8        30.07S
GLASGOW        SUNNY     76  49  37 SW6       30.09R
$$

KYZ024-025-028>034-038-045-046-053-040000-
NORTH CENTRAL KENTUCKY

CITY           SKY/WX    TMP DP  RH WIND       PRES   REMARKS
LOUISVILLE/SDF MOSUNNY   79  46  31 S9        30.06R
LOUISVILLE/LOU SUNNY     78  46  32 S8        30.06S
FORT KNOX      MOSUNNY   76  49  37 S10       30.05S
$$

KYZ035>037-039>044-047>052-055>060-089>105-040000-
NORTHEAST KENTUCKY

CITY           SKY/WX    TMP DP  RH WIND       PRES   REMARKS
LEXINGTON      SUNNY     75  50  41 SW9       30.09S
COVINGTON      MOSUNNY   74  47  38 S8        30.07S
FRANKFORT      SUNNY     75  42  30 SW12      30.07S
$$

KYZ054-064>069-076>088-106>120-040000-
SOUTHEAST KENTUCKY

CITY           SKY/WX    TMP DP  RH WIND       PRES   REMARKS
JACKSON        MOSUNNY   76  41  28 CALM      30.11S
LONDON         PTSUNNY   77  41  27 S5        30.10S
SOMERSET       MOSUNNY   75  45  33 NW5       30.10S
MIDDLESBORO    MOSUNNY   76  44  31 S6        30.11S
MONTICELLO     CLEAR     78  47  33 W8        30.11S
$$



USA.gov is the U.S. government's official web portal to all federal, state and local government web resources and services.